Wind_Speed
10 11 15 20 25 30 36 40 42 46 49 52 53 53 55 57 59 56 62 70 72 78 88 93 95 92 91 91 87 85 85 77 70 67 60 59 57 54 55 52 51 52 56 57 52 49 48 54 49 53 50 36 39 41
5 9 14 20 25 31 35 38 40 42 45 46 48 48 50 51 51 52 58 64 65 77 82 90 88 88 88 88 89 89 82 79 73 70 63 61 57 59 55 54 54 55 56 54 54 49 52 55 56 56 46 38 37 42
5 9 13 18 24 29 32 34 36 38 41 41 41 42 44 44 46 52 58 62 66 76 84 88 91 90 88 87 87 82 79 76 72 70 69 67 64 61 59 59 61 60 58 58 54 53 56 59 55 57 45 45 42 42
9 12 15 19 23 27 29 32 34 36 36 36 37 39 41 45 50 55 57 61 69 74 79 86 92 91 88 85 84 78 74 70 67 67 67 63 63 64 63 63 62 56 55 55 55 54 58 63 59 52 48 46 46 42
12 15 18 20 23 26 28 30 31 32 32 34 37 40 44 49 55 58 61 65 73 80 82 86 90 95 91 87 82 78 74 69 66 63 59 61 62 63 65 63 55 54 53 56 55 60 62 61 57 56 44 44 48 50
12 16 19 22 23 24 25 27 30 32 34 37 41 46 51 55 58 60 66 71 73 71 76 80 83 88 89 88 83 78 74 70 67 63 62 60 56 59 61 57 55 57 57 59 61 61 61 61 63 63 58 49 50 56
15 14 16 17 19 21 23 26 29 33 38 42 47 51 55 55 55 55 54 57 63 67 71 73 77 82 84 83 79 75 71 69 67 66 64 62 60 61 60 58 58 61 59 57 58 61 62 65 66 66 70 68 68 64
18 18 18 19 21 23 25 28 31 36 42 46 49 51 52 52 55 62 65 64 66 64 64 65 66 71 75 75 73 71 69 67 67 67 65 62 63 61 57 59 63 63 62 61 61 61 64 68 68 69 67 62 55 56
21 23 23 23 25 26 28 31 33 35 39 43 47 50 52 55 60 58 58 61 58 55 54 54 56 57 60 64 65 66 66 68 67 67 66 65 62 57 56 59 62 57 55 57 59 59 63 65 65 58 50 46 49 52
19 22 22 25 26 29 31 34 38 39 40 42 43 47 53 57 55 55 58 56 54 53 51 49 48 50 52 52 52 54 59 66 63 62 63 63 60 59 61 61 61 57 54 56 63 64 61 60 50 46 49 49 50 59
22 20 18 19 21 25 28 33 39 41 43 46 50 50 49 51 54 55 53 50 49 48 46 45 45 48 49 50 51 51 50 49 52 53 55 55 53 55 54 55 57 61 60 61 62 62 54 51 53 56 56 60 68 67
31 26 22 19 18 19 22 31 38 45 48 48 48 49 50 52 51 50 49 49 46 46 45 45 47 47 49 50 51 48 45 44 45 45 50 49 49 50 49 55 59 62 61 62 57 57 58 62 66 64 68 73 77 79
33 25 24 22 25 26 30 33 40 45 49 51 54 53 51 47 46 47 44 42 41 42 41 43 46 48 50 52 50 45 37 39 49 51 48 52 55 58 59 59 63 63 61 62 65 65 66 69 67 71 76 84 86 84
34 29 23 25 26 29 34 37 40 45 49 49 45 45 44 47 48 47 48 47 46 46 45 47 50 52 53 55 57 54 56 54 54 56 58 55 57 58 58 59 60 63 61 63 66 68 68 70 77 81 81 87 85 78
32 29 27 26 31 36 37 38 39 44 49 52 53 54 53 52 51 49 48 47 48 50 52 53 55 53 54 55 56 58 60 55 58 57 61 59 57 56 59 64 65 65 68 70 72 74 80 85 88 88 84 75 72 73
36 31 27 26 23 23 29 31 36 35 38 42 45 45 47 47 46 46 48 49 49 49 49 51 50 49 50 53 57 59 56 62 67 62 60 56 58 62 64 68 71 68 70 71 74 77 76 71 70 69 69 70 72 75
22 24 28 24 24 22 18 19 21 18 25 27 37 39 42 43 46 46 45 45 47 46 46 44 42 44 48 52 62 62 60 55 54 64 64 62 63 67 68 67 66 63 64 66 65 65 65 67 69 70 73 76 78 81
12 12 12 16 19 17 10 10 15 11 10 15 20 14 18 31 34 33 36 43 42 38 41 42 41 42 47 47 46 49 55 56 54 52 53 58 57 58 61 66 70 74 76 73 67 66 68 71 74 78 80 82 84 85
19 11 12 10 7 7 12 16 13 8 12 6 11 14 12 14 22 22 18 17 17 16 21 25 26 33 34 35 34 36 41 48 55 59 59 60 59 60 61 63 65 67 67 68 70 72 74 76 79 83 84 85 86 89
18 16 21 24 27 19 16 21 18 14 15 17 18 20 24 24 22 21 25 29 32 31 34 34 34 35 39 43 46 49 51 52 56 61 61 63 65 63 63 64 67 70 72 75 76 79 81 83 83 85 88 90 93 94
22 21 21 23 26 28 31 30 28 29 29 28 34 30 31 34 38 42 37 35 39 42 43 43 44 44 46 48 50 52 53 53 54 56 58 61 64 65 67 69 72 74 76 78 80 81 84 86 88 89 90 92 93 95
25 24 24 25 24 26 27 29 28 28 30 33 35 36 36 36 39 43 48 46 45 46 45 47 47 48 50 52 53 55 57 59 60 62 63 66 69 71 73 74 75 76 78 79 81 83 84 85 86 88 89 91 92 92
33 34 35 32 31 30 30 31 31 32 32 34 35 37 39 41 44 46 47 49 50 51 52 52 53 53 54 55 56 58 60 62 64 66 68 70 72 74 76 78 79 79 80 80 80 81 82 83 85 86 87 89 91 92
38 38 37 39 40 39 40 40 40 39 39 40 41 41 41 42 43 44 46 47 49 51 52 53 54 56 57 59 61 63 64 66 68 70 71 72 74 75 76 76 77 78 78 79 80 82 83 83 85 87 87 87 88 90
47 46 45 44 44 45 45 46 47 47 46 46 46 48 49 50 49 49 51 52 52 53 55 56 57 58 59 61 63 64 65 66 66 67 68 70 71 72 74 75 76 77 78 78 79 80 82 83 84 86 87 87 88 89
54 52 53 52 52 51 50 51 50 51 52 52 52 54 56 57 58 58 58 61 64 64 63 62 63 65 67 67 68 68 69 69 70 72 72 72 73 73 74 73 73 75 77 78 79 81 82 83 84 85 85 84 82 81
57 55 53 52 54 54 54 53 54 54 53 53 53 52 53 55 57 59 60 60 60 61 64 66 67 66 66 67 67 68 68 68 69 69 69 70 70 71 72 73 75 76 77 78 78 79 80 81 80 78 76 74 72 71
54 55 55 54 52 52 53 53 53 53 53 54 55 55 55 55 57 58 59 60 61 62 63 64 66 66 67 67 66 66 65 66 66 67 68 69 69 70 71 72 72 73 74 75 75 73 72 72 71 70 69 69 68 67
45 45 46 48 49 50 51 52 53 55 57 60 61 61 62 62 62 62 62 62 62 62 62 62 62 63 63 63 63 63 63 62 62 63 64 64 64 66 68 69 69 68 68 67 67 67 67 66 67 66 65 65 64 63
42 42 43 44 46 47 49 50 52 53 53 54 56 57 56 56 56 56 57 57 57 58 58 58 59 59 59 59 60 60 60 61 61 62 63 64 64 63 63 63 63 63 63 63 63 62 61 61 60 60 60 60 59 58
39 38 38 38 38 39 40 43 44 44 44 44 45 46 47 48 48 49 50 50 51 52 52 53 53 54 55 56 57 58 58 58 58 58 58 58 58 58 58 58 58 58 58 57 58 57 57 56 56 55 54 53 52 52
32 32 33 35 36 36 37 38 39 41 41 42 42 43 44 44 45 46 45 46 46 47 47 49 50 51 51 52 52 52 51 52 52 52 52 53 53 52 52 53 53 54 54 54 54 54 53 53 52 51 51 51 50 48
29 29 28 29 30 31 33 34 34 35 36 37 38 38 39 39 40 40 40 41 41 41 42 43 43 44 44 44 44 45 46 46 46 47 47 47 48 48 49 50 50 50 50 50 50 50 49 49 48 48 48 48 46 45
Wind_Direction
248 225 213 205 200 198 198 199 201 203 204 206 207 208 209 209 212 209 208 211 212 209 208 207 208 213 217 222 223 226 229 232 236 236 241 247 250 251 254 261 265 270 270 274 279 283 282 289 298 301 307 289 267 263
212 198 190 192 190 189 192 194 197 199 201 203 204 204 206 204 206 204 204 205 206 206 206 206 205 210 213 217 220 224 228 232 232 236 242 242 246 250 253 257 260 263 268 272 282 282 281 288 293 300 299 294 281 267
145 163 174 178 180 181 184 189 192 195 197 198 198 198 199 196 195 197 200 201 200 201 203 204 202 205 212 219 222 225 228 232 234 235 238 242 245 249 251 255 258 264 268 275 278 275 280 284 290 296 290 279 288 279
123 141 159 165 172 175 178 181 186 189 191 189 187 188 186 186 188 193 194 194 194 197 200 202 204 204 209 217 222 223 225 227 231 234 238 242 245 248 251 257 261 267 271 275 274 279 274 279 288 290 281 277 278 281
106 129 143 157 164 169 174 178 181 182 181 179 178 178 180 184 186 188 188 189 191 195 196 200 204 205 209 215 220 222 224 227 233 236 240 243 245 248 250 255 262 266 266 270 277 275 277 280 281 283 277 276 279 282
104 121 134 146 157 166 171 173 174 173 173 173 175 177 178 184 186 186 187 187 188 190 194 199 202 205 209 213 218 221 225 229 233 237 239 241 244 250 252 256 259 261 265 270 272 274 277 281 284 281 286 282 284 285
94 119 134 141 148 154 160 165 168 169 169 172 173 178 180 184 184 183 181 185 187 190 192 195 199 204 209 213 218 224 228 231 234 236 238 241 246 251 253 257 260 262 263 266 264 268 272 274 279 283 284 284 284 282
94 105 120 134 143 148 153 159 161 164 168 172 174 179 179 178 178 179 181 179 183 185 190 195 199 204 208 214 219 223 227 230 233 235 238 242 247 251 253 253 257 261 264 262 256 259 263 268 272 276 280 282 283 284
102 111 122 130 139 143 147 153 157 160 166 171 173 176 176 177 175 175 175 176 178 181 186 192 197 202 207 211 216 223 228 233 233 236 240 244 246 249 252 254 257 256 255 256 257 260 264 271 275 275 273 280 282 284
94 111 122 129 136 141 146 149 151 157 163 165 168 173 173 172 172 171 172 171 172 179 184 185 190 196 200 204 211 220 221 229 233 237 240 242 245 249 251 250 250 252 247 249 254 257 264 267 266 270 270 274 279 283
75 85 97 112 127 138 147 149 151 152 157 159 161 163 168 167 167 166 163 167 173 176 179 183 186 191 192 197 191 207 223 227 232 236 238 239 241 241 241 245 248 247 247 250 262 262 256 260 270 269 268 274 282 292
72 74 79 93 117 135 145 153 153 153 153 155 160 161 159 159 158 160 161 164 171 175 178 180 185 188 188 193 196 208 216 223 226 229 231 229 233 229 237 246 249 248 254 261 268 269 267 272 276 277 286 294 298 298
73 78 87 115 128 135 143 148 148 149 148 148 148 150 152 154 156 159 160 164 167 171 177 183 184 186 189 188 194 204 211 227 226 219 229 232 229 233 237 241 249 252 256 260 266 269 267 272 277 281 287 290 293 292
86 89 105 106 127 139 143 145 146 146 144 141 141 144 148 149 151 155 158 160 165 171 178 184 188 191 192 195 200 195 208 218 230 227 231 235 235 239 244 247 251 261 266 266 266 268 271 274 277 283 285 286 286 286
72 80 90 114 120 132 135 141 146 149 149 151 149 150 151 157 159 160 163 170 178 185 190 194 197 199 201 206 209 211 217 223 225 230 234 238 240 246 250 250 252 256 262 266 266 266 270 273 275 277 280 281 281 284
95 85 80 94 124 121 139 144 151 156 159 156 156 160 165 168 169 172 178 186 189 196 200 202 207 208 212 214 217 223 224 228 231 237 238 238 243 247 252 254 258 264 270 272 273 272 272 271 271 273 276 281 283 284
94 95 88 93 94 94 113 122 152 161 167 164 171 173 175 178 179 187 188 193 199 203 205 212 215 219 221 220 221 227 231 234 238 237 239 241 246 251 251 252 262 261 268 275 274 273 274 275 278 280 283 284 286 287
100 88 109 105 108 105 112 115 92 125 149 182 171 157 171 194 193 197 202 206 207 213 215 219 226 230 233 234 237 240 242 241 242 245 248 245 253 261 262 262 261 263 268 272 275 276 278 279 280 280 282 284 285 287
165 159 175 192 168 135 119 125 147 140 194 191 197 207 202 211 222 223 233 243 238 253 245 239 243 242 246 244 252 257 255 255 252 252 253 257 261 265 266 265 266 268 271 274 275 276 278 279 280 281 282 284 285 287
184 187 191 199 199 203 198 186 190 211 210 212 215 224 227 242 231 234 244 257 257 255 261 260 258 258 259 261 263 261 256 254 255 255 256 256 261 266 270 271 272 273 274 275 276 277 279 281 283 284 285 286 287 288
196 191 193 200 210 209 213 216 221 225 226 225 225 227 222 224 229 236 248 249 248 250 252 251 255 258 257 252 253 256 258 259 261 261 261 263 265 268 271 273 274 275 276 278 280 281 282 283 285 286 287 287 288 289
214 219 222 214 210 207 211 217 221 225 229 232 234 234 232 232 231 231 235 240 243 246 247 249 249 250 251 253 255 258 261 263 264 265 266 268 270 273 276 279 280 281 281 281 282 283 284 285 287 288 289 290 291 292
225 225 224 226 226 229 232 234 233 236 238 238 237 238 238 241 243 246 248 251 252 254 257 259 261 263 264 264 264 265 266 267 269 270 272 273 275 277 278 279 280 281 282 283 285 286 288 289 290 291 292 292 292 293
238 238 236 235 232 232 231 237 241 245 248 251 250 249 249 250 250 250 251 252 253 254 256 258 261 263 265 267 268 269 270 272 273 274 275 277 278 280 281 282 283 284 286 287 288 289 290 290 290 290 291 292 293 294
248 250 250 249 248 248 246 246 245 246 247 248 249 249 253 255 256 259 259 258 258 259 260 262 263 263 265 268 271 273 275 276 277 279 280 281 283 284 285 286 286 287 288 289 289 289 290 291 292 293 294 294 295 296
247 248 249 251 252 253 253 256 255 254 253 250 249 248 247 250 252 254 257 259 261 263 264 266 268 270 272 273 275 276 277 278 280 281 282 283 284 284 285 286 286 287 288 289 290 291 292 292 293 294 295 296 297 298
251 251 251 253 254 256 258 259 258 259 259 259 259 257 256 255 255 257 258 259 259 261 262 263 265 267 269 272 274 275 276 277 278 279 281 282 283 284 285 286 286 288 289 290 290 292 293 294 294 296 297 298 298 299
250 251 253 252 253 254 255 257 259 261 260 260 260 261 261 260 260 259 258 259 260 261 263 266 268 270 271 271 272 274 276 277 277 278 279 280 282 283 284 286 287 288 290 291 293 294 295 296 298 299 300 301 302 302
255 256 258 256 258 258 258 258 258 258 257 258 259 259 261 260 261 261 262 263 265 266 267 269 270 272 273 274 275 277 278 279 280 281 282 283 285 286 287 289 290 292 293 294 296 297 298 299 300 301 302 303 304 304
252 250 250 250 250 250 251 251 253 254 255 256 258 260 261 263 265 266 266 268 269 270 271 272 273 274 275 276 278 278 280 281 282 283 284 285 287 289 290 292 293 294 295 296 297 298 299 301 303 304 305 305 306 308
252 254 256 257 258 258 259 260 261 262 264 264 264 264 265 266 267 267 268 269 270 271 271 272 273 273 274 275 276 277 279 281 283 284 286 287 289 290 291 292 293 294 296 297 300 302 303 304 305 306 307 308 309 310
258 257 256 254 254 253 255 256 257 259 260 260 261 263 264 264 265 267 268 269 269 270 270 271 273 274 275 277 278 279 281 282 283 285 287 288 290 291 292 293 296 298 300 302 302 304 305 307 309 310 311 312 313 314
262 261 259 259 258 259 261 262 263 263 264 264 264 264 264 266 267 268 270 271 272 273 273 273 274 275 276 278 280 281 282 283 285 286 288 290 291 294 296 298 299 300 301 303 304 306 309 310 310 312 313 314 316 318
Height
9993 9993 9995 10000 10006 10015 10025 10035 10046 10058 10069 10081 10096 10111 10124 10137 10151 10174 10195 10212 10231 10261 10285 10308 10331 10353 10363 10372 10391 10400 10402 10422 10436 10445 10457 10464 10470 10473 10476 10479 10481 10479 10477 10478 10479 10484 10485 10480 10480 10478 10476 10475 10476 10476
9992 9992 9995 10000 10006 10014 10022 10032 10043 10054 10066 10079 10093 10106 10118 10133 10149 10169 10186 10201 10224 10251 10275 10296 10321 10338 10348 10354 10362 10376 10399 10410 10423 10431 10443 10450 10458 10460 10465 10467 10467 10467 10466 10467 10469 10471 10471 10469 10467 10467 10467 10466 10463 10465
9993 9994 9997 10001 10007 10015 10024 10034 10044 10054 10065 10078 10091 10104 10116 10132 10148 10163 10177 10194 10218 10241 10259 10284 10303 10319 10336 10343 10355 10374 10390 10401 10412 10421 10429 10436 10442 10447 10451 10454 10453 10457 10458 10458 10458 10461 10458 10455 10454 10456 10455 10454 10453 10452
9998 9998 10001 10006 10011 10019 10027 10035 10045 10054 10065 10078 10089 10101 10113 10127 10141 10153 10171 10187 10205 10228 10250 10268 10289 10306 10322 10334 10346 10365 10376 10389 10399 10408 10415 10423 10430 10433 10439 10441 10443 10448 10448 10446 10446 10449 10443 10440 10442 10443 10441 10439 10439 10438
10003 10003 10006 10011 10016 10023 10031 10038 10047 10057 10067 10077 10087 10099 10111 10122 10132 10144 10160 10178 10193 10207 10232 10253 10274 10293 10311 10323 10338 10354 10366 10379 10389 10397 10405 10411 10416 10420 10426 10429 10439 10435 10433 10432 10436 10430 10427 10429 10429 10429 10428 10426 10426 10425
10010 10010 10013 10017 10022 10028 10035 10042 10050 10058 10067 10077 10087 10096 10106 10114 10127 10141 10150 10164 10185 10210 10228 10243 10267 10286 10302 10314 10327 10344 10356 10368 10379 10387 10393 10399 10405 10408 10411 10422 10424 10419 10418 10417 10419 10418 10414 10413 10413 10413 10414 10413 10412 10411
10018 10018 10020 10023 10027 10033 10040 10047 10054 10062 10070 10078 10087 10095 10105 10116 10131 10149 10169 10185 10196 10209 10227 10246 10260 10280 10296 10311 10327 10339 10351 10361 10369 10374 10381 10387 10392 10394 10402 10409 10409 10406 10406 10406 10405 10403 10404 10402 10401 10402 10401 10399 10397 10396
10025 10026 10028 10030 10033 10038 10043 10049 10057 10064 10072 10079 10088 10097 10109 10122 10133 10141 10154 10174 10190 10210 10230 10247 10265 10278 10294 10311 10324 10334 10343 10349 10356 10363 10370 10376 10379 10384 10393 10391 10392 10394 10392 10391 10390 10392 10391 10390 10390 10389 10387 10385 10382 10380
10033 10033 10033 10036 10039 10044 10050 10056 10063 10072 10079 10086 10096 10104 10113 10123 10136 10152 10168 10180 10201 10221 10238 10252 10265 10281 10294 10306 10317 10325 10333 10337 10346 10353 10359 10361 10368 10375 10379 10376 10376 10378 10379 10380 10379 10378 10377 10379 10377 10376 10374 10373 10370 10367
10044 10043 10042 10044 10047 10051 10057 10063 10070 10077 10085 10095 10106 10115 10123 10132 10147 10162 10173 10188 10206 10221 10234 10247 10263 10275 10286 10299 10310 10318 10318 10323 10335 10341 10345 10350 10357 10360 10360 10360 10361 10361 10364 10365 10363 10363 10365 10366 10364 10363 10362 10360 10358 10356
10058 10059 10060 10062 10063 10066 10069 10074 10080 10087 10096 10105 10114 10124 10136 10149 10159 10170 10186 10200 10213 10224 10237 10250 10261 10271 10281 10291 10299 10303 10310 10319 10324 10331 10334 10340 10347 10344 10345 10347 10347 10347 10349 10351 10351 10352 10352 10351 10350 10348 10347 10345 10342 10335
10072 10073 10074 10076 10078 10080 10082 10085 10090 10096 10105 10116 10126 10137 10149 10159 10170 10183 10194 10202 10215 10227 10238 10248 10258 10268 10277 10284 10292 10300 10304 10310 10315 10320 10320 10328 10332 10332 10333 10334 10335 10337 10338 10339 10339 10338 10338 10336 10333 10332 10329 10321 10318 10312
10086 10087 10088 10090 10092 10096 10099 10102 10106 10112 10120 10129 10138 10149 10160 10173 10184 10192 10203 10212 10223 10230 10241 10250 10257 10264 10270 10279 10285 10292 10297 10301 10303 10307 10313 10317 10318 10319 10320 10323 10325 10326 10326 10326 10326 10326 10325 10323 10319 10317 10314 10306 10304 10300
10100 10102 10103 10105 10108 10110 10113 10117 10121 10127 10134 10146 10156 10165 10174 10182 10189 10198 10204 10214 10223 10232 10240 10247 10252 10259 10267 10273 10277 10280 10283 10289 10296 10302 10302 10303 10306 10310 10312 10314 10315 10315 10315 10315 10314 10312 10310 10308 10304 10301 10299 10296 10289 10283
10117 10119 10121 10123 10125 10128 10132 10135 10138 10142 10147 10153 10161 10169 10177 10186 10194 10203 10212 10220 10226 10232 10237 10242 10248 10256 10262 10268 10273 10278 10281 10285 10288 10289 10292 10295 10298 10299 10300 10301 10303 10304 10303 10302 10301 10299 10296 10294 10290 10285 10280 10276 10270 10265
10132 10135 10135 10136 10140 10143 10146 10149 10154 10158 10163 10170 10175 10181 10188 10195 10202 10209 10213 10218 10225 10231 10237 10243 10249 10255 10261 10266 10268 10271 10275 10278 10279 10282 10285 10288 10290 10290 10291 10291 10291 10292 10292 10289 10285 10282 10278 10275 10271 10267 10262 10256 10250 10243
10144 10146 10147 10149 10151 10154 10159 10162 10168 10172 10176 10180 10182 10187 10194 10200 10205 10209 10215 10220 10226 10231 10235 10240 10246 10250 10254 10259 10261 10264 10267 10270 10272 10274 10276 10277 10278 10279 10279 10281 10280 10278 10274 10270 10266 10262 10259 10255 10250 10246 10241 10235 10229 10223
10152 10154 10156 10159 10163 10166 10167 10169 10174 10179 10184 10187 10190 10195 10198 10202 10207 10213 10217 10220 10224 10230 10234 10238 10243 10246 10249 10252 10255 10257 10259 10262 10265 10266 10266 10267 10267 10266 10265 10264 10262 10258 10254 10251 10248 10244 10240 10235 10230 10226 10220 10215 10209 10202
10161 10162 10163 10164 10166 10169 10173 10176 10180 10184 10189 10191 10195 10199 10202 10206 10209 10212 10215 10219 10224 10228 10232 10235 10238 10241 10243 10246 10247 10249 10250 10251 10252 10252 10251 10251 10249 10248 10247 10245 10242 10239 10236 10232 10229 10224 10220 10215 10210 10205 10200 10194 10186 10178
10164 10165 10167 10169 10171 10172 10176 10180 10184 10186 10188 10192 10195 10197 10200 10203 10207 10210 10213 10215 10218 10221 10224 10226 10228 10229 10231 10232 10233 10233 10233 10233 10233 10235 10234 10233 10233 10231 10228 10225 10223 10220 10217 10213 10208 10204 10200 10195 10189 10183 10176 10169 10161 10152
10164 10166 10168 10170 10171 10173 10174 10178 10182 10185 10187 10190 10193 10195 10197 10199 10201 10204 10205 10207 10209 10209 10212 10214 10217 10218 10218 10219 10218 10218 10217 10217 10217 10216 10216 10215 10213 10211 10209 10206 10204 10200 10197 10193 10189 10185 10179 10173 10166 10158 10150 10141 10134 10124
10159 10161 10163 10166 10168 10171 10173 10176 10178 10179 10182 10184 10186 10188 10190 10192 10194 10194 10195 10197 10197 10199 10200 10202 10203 10204 10205 10205 10205 10204 10203 10202 10201 10200 10199 10197 10195 10193 10190 10187 10184 10180 10176 10172 10167 10161 10155 10147 10139 10131 10122 10113 10104 10095
10152 10154 10157 10159 10161 10164 10165 10167 10168 10170 10173 10175 10177 10179 10181 10183 10184 10186 10187 10187 10188 10189 10189 10190 10190 10191 10191 10191 10191 10190 10189 10188 10186 10184 10182 10180 10177 10174 10170 10166 10162 10157 10153 10147 10141 10134 10127 10119 10111 10103 10094 10085 10076 10067
10142 10144 10147 10149 10151 10153 10156 10157 10159 10161 10163 10164 10166 10167 10169 10171 10172 10173 10174 10174 10174 10175 10175 10175 10175 10175 10174 10174 10173 10172 10170 10169 10167 10165 10163 10160 10157 10153 10148 10143 10137 10132 10126 10120 10114 10108 10101 10093 10085 10076 10068 10059 10050 10040
10129 10130 10133 10135 10138 10140 10142 10145 10147 10149 10151 10153 10154 10155 10156 10157 10158 10159 10159 10160 10160 10160 10160 10159 10159 10158 10156 10155 10154 10153 10151 10148 10146 10143 10140 10136 10132 10128 10124 10119 10113 10108 10102 10095 10089 10081 10074 10066 10057 10049 10041 10033 10024 10015
10114 10117 10119 10121 10122 10125 10128 10130 10131 10133 10135 10137 10138 10140 10141 10142 10143 10143 10143 10143 10143 10143 10142 10142 10141 10140 10138 10137 10135 10132 10130 10127 10125 10121 10118 10114 10110 10105 10101 10095 10090 10084 10077 10071 10064 10057 10049 10042 10033 10025 10017 10009 10001 9991
10097 10100 10102 10105 10107 10110 10112 10114 10116 10117 10118 10119 10120 10122 10123 10124 10125 10125 10125 10125 10125 10124 10123 10123 10122 10120 10119 10118 10116 10113 10110 10107 10104 10101 10096 10092 10088 10083 10078 10073 10067 10061 10055 10048 10041 10034 10027 10018 10010 10002 9994 9986 9979 9970
10081 10082 10086 10089 10091 10093 10096 10097 10099 10099 10101 10101 10102 10102 10103 10104 10104 10104 10104 10105 10105 10104 10103 10103 10102 10101 10099 10096 10094 10092 10090 10087 10084 10080 10075 10071 10067 10063 10058 10052 10046 10040 10034 10027 10020 10013 10005 9997 9989 9981 9973 9965 9957 9950
10069 10070 10071 10074 10076 10077 10077 10078 10079 10080 10080 10081 10081 10082 10082 10083 10083 10083 10083 10083 10083 10083 10082 10081 10080 10079 10078 10076 10074 10072 10069 10066 10062 10059 10055 10051 10047 10042 10037 10031 10025 10019 10012 10006 10000 9992 9985 9978 9970 9962 9954 9946 9938 9930
10053 10054 10056 10057 10058 10058 10059 10060 10060 10060 10060 10061 10062 10062 10063 10064 10064 10065 10065 10065 10065 10065 10063 10062 10061 10060 10059 10057 10055 10052 10050 10047 10044 10040 10036 10032 10027 10022 10017 10012 10006 10000 9993 9987 9981 9975 9968 9961 9954 9946 9938 9930 9921 9913
10041 10043 10044 10045 10046 10047 10048 10048 10048 10048 10048 10049 10049 10049 10049 10049 10049 10049 10048 10048 10048 10048 10047 10045 10044 10043 10041 10040 10038 10036 10033 10030 10026 10022 10018 10014 10009 10004 10000 9994 9989 9983 9977 9971 9964 9957 9951 9944 9937 9930 9922 9915 9907 9899
10032 10032 10033 10033 10033 10034 10034 10034 10035 10034 10035 10035 10035 10035 10035 10036 10035 10035 10034 10034 10033 10033 10032 10031 10029 10028 10026 10024 10021 10019 10016 10012 10009 10005 10001 9997 9993 9989 9984 9978 9972 9967 9961 9955 9948 9942 9935 9929 9922 9915 9907 9900 9893 9885
10020 10020 10021 10022 10022 10022 10022 10022 10023 10023 10023 10022 10022 10022 10022 10022 10022 10021 10021 10020 10019 10019 10018 10016 10014 10013 10010 10008 10006 10004 10000 9997 9994 9990 9986 9982 9978 9973 9968 9963 9958 9952 9946 9941 9935 9928 9922 9916 9909 9902 9895 9887 9880 9874